MONITOR-2 (RS39S)

Last updated on Mon Sep 07 2026 00:03:13 GMT+0000 (Coordinated Universal Time)

1 57184U 23091U 26249.58905685 .00002853 00000+0 13733-3 0 9996 2 57184 97.4998 307.3464 0010915 180.7284 179.3937 15.19539894176317
UTC large
Height (km)
Speed (km/s)
/
Latitude / Longitude
Inclination (degrees)
Orbital Period (minutes)
Azimuth
Elevation
Range (km)
Doppler Factor

Next 0 passes for location: London (51.5072 / 0.1276)

No passes found over London.
MONITOR-2 (RS39S)